This is the latest recevied weather packets stored in our database for station/object KC4GS-13. If no packets are shown the sender has not sent any weather packets the latest 10 day(s).
| Time | Temp. | Humidity | Pressure | Rain* | Wind** | Luminosity | Snow |
|---|---|---|---|---|---|---|---|
| 1788570233 | 29.44° C | 75% | 1016.5 hPa | 0 mm | - | 0 W/m² | - |
| 1788569929 | 28.89° C | 75% | 1016.3 hPa | 0 mm | - | 0 W/m² | - |
| 1788569624 | 28.89° C | 74% | 1016.5 hPa | 0 mm | - | 0 W/m² | - |
| 1788569320 | 28.89° C | 73% | 1016.1 hPa | 0 mm | - | 0 W/m² | - |
| 1788569014 | 28.89° C | 73% | 1016.2 hPa | 0 mm | - | 0 W/m² | - |
| 1788568710 | 29.44° C | 71% | 1016.2 hPa | 0 mm | - | 0 W/m² | - |
| 1788568406 | 30° C | 70% | 1015.9 hPa | 0 mm | - | 0 W/m² | - |
| 1788568101 | 30° C | 70% | 1015.9 hPa | 0 mm | - | 0 W/m² | - |
| 1788567795 | 30° C | 69% | 1015.8 hPa | 0 mm | - | 0 W/m² | - |
| 1788567490 | 30.56° C | 68% | 1015.6 hPa | 0 mm | - | 0 W/m² | - |
| 1788567189 | 30.56° C | 67% | 1015.8 hPa | 0 mm | - | 0 W/m² | - |
| 1788566885 | 31.11° C | 67% | 1015.6 hPa | 0 mm | - | 0 W/m² | - |
| 1788566580 | 31.11° C | 66% | 1015.5 hPa | 0 mm | - | 0 W/m² | - |
| 1788566275 | 31.67° C | 64% | 1015.4 hPa | 0 mm | - | 0 W/m² | - |
| 1788565970 | 31.67° C | 63% | 1015.5 hPa | 0 mm | - | 0 W/m² | - |
| 1788565675 | 32.22° C | 62% | 1015.2 hPa | 0 mm | - | 2 W/m² | - |
| 1788565360 | 32.22° C | 60% | 1015.2 hPa | 0 mm | - | 4 W/m² | - |
| 1788565056 | 32.78° C | 59% | 1015.2 hPa | 0 mm | - | 7 W/m² | - |
| 1788564752 | 32.78° C | 59% | 1015.2 hPa | 0 mm | - | 9 W/m² | - |
| 1788564449 | 32.78° C | 59% | 1015.1 hPa | 0 mm | - | 11 W/m² | - |
| 1788564145 | 33.33° C | 58% | 1015.1 hPa | 0 mm | - | 13 W/m² | - |
| 1788563840 | 33.33° C | 58% | 1014.8 hPa | 0 mm | - | 15 W/m² | - |
| 1788563536 | 33.33° C | 57% | 1015 hPa | 0 mm | - | 17 W/m² | - |
| 1788563234 | 33.33° C | 56% | 1015 hPa | 0 mm | - | 19 W/m² | - |
| 1788562924 | 33.33° C | 56% | 1014.9 hPa | 0 mm | - | 21 W/m² | - |
* Rain latest hour (hover to see other rain measurements)
** Current wind speed in m/s (hover to see current wind gust speed)